CW5542 Weather Reports


time (UTC)temp
C
wind
direction
speed
KPH
gust
KPH
rain 1hr
cm
rain 24hr
cm
rain mn
cm
humidity
%
barometer
mb
20260503184009 16 137 3.2 64.4 0.00 0.00 0.00 38 1010.4
20260503183008 16 75 12.9 83.7 0.00 0.00 0.00 39 1010.6
20260503182008 16 256 0.0 70.8 0.00 0.00 0.00 40 1010.9
20260503181008 16 212 29.0 45.1 0.00 0.00 0.00 41 1010.8
20260503175006 15 210 16.1 48.3 0.00 0.00 0.00 43 1011.5
20260503174006 15 235 3.2 57.9 0.00 0.00 0.00 41 1011.5
20260503173005 15 224 35.4 61.2 0.00 0.00 0.00 42 1011.6
20260503172004 15 187 0.0 41.8 0.00 0.00 0.00 43 1011.8
20260503171004 15 204 22.5 51.5 0.00 0.00 0.00 42 1011.9
20260503150956 10 171 0.0 38.6 0.00 0.00 0.00 52 1013.3
20260503130951 9 220 0.0 32.2 0.00 0.00 0.00 52 1013.5
20260503081007 3 231 0.0 0.0 0.00 0.00 0.00 60 1014.3
20260503072005 3 164 0.0 0.0 0.00 0.00 0.00 60 1014.6
20260503054959 3 229 0.0 0.0 0.00 0.00 0.00 60 1015.2
20260503053958 3 179 0.0 0.0 0.00 0.00 0.00 60 1015.3
20260503052958 2 223 0.0 0.0 0.00 0.00 0.00 60 1015.3
20260503050957 2 223 0.0 0.0 0.00 0.00 0.00 60 1015.4
20260503045956 3 222 0.0 0.0 0.00 0.00 0.00 60 1015.5
20260503044956 3 221 0.0 0.0 0.00 0.00 0.00 60 1015.5
20260503043955 3 224 0.0 0.0 0.00 0.00 0.00 60 1015.6
20260503042954 3 226 0.0 0.0 0.00 0.00 0.00 59 1015.5
20260503041954 3 229 0.0 0.0 0.00 0.00 0.00 60 1015.6
20260503040953 3 226 0.0 0.0 0.00 0.00 0.00 60 1015.6
20260503035952 3 225 0.0 0.0 0.00 0.00 0.00 59 1015.7
20260503034952 3 226 0.0 0.0 0.00 0.00 0.00 61 1015.7
20260503033952 3 226 0.0 0.0 0.00 0.00 0.00 62 1015.8
20260503032951 3 226 0.0 0.0 0.00 0.00 0.00 59 1015.9
20260503031950 3 226 0.0 0.0 0.00 0.00 0.00 60 1015.9
20260503030950 3 226 0.0 0.0 0.00 0.00 0.00 58 1015.8
20260503025949 3 226 0.0 0.0 0.00 0.00 0.00 57 1015.9
20260503024948 3 226 0.0 0.0 0.00 0.00 0.00 57 1015.9
20260503023947 3 226 0.0 0.0 0.00 0.00 0.00 60 1016.0
20260503022947 3 226 0.0 0.0 0.00 0.00 0.00 59 1016.0
20260503021946 3 226 0.0 0.0 0.00 0.00 0.00 59 1015.9
20260503020946 4 226 0.0 0.0 0.00 0.00 0.00 57 1015.9
20260503015945 4 226 0.0 0.0 0.00 0.00 0.00 55 1015.9
20260503014945 5 226 0.0 0.0 0.00 0.00 0.00 53 1015.9
20260503013944 5 226 0.0 0.0 0.00 0.00 0.00 52 1015.9
20260503013013 5 226 0.0 0.0 0.00 0.00 0.00 51 1015.8
20260503012012 6 223 0.0 0.0 0.00 0.00 0.00 50 1015.7
20260503010942 6 223 0.0 0.0 0.00 0.00 0.00 48 1015.6
20260503010011 6 223 0.0 0.0 0.00 0.00 0.00 48 1015.7
20260503005010 6 175 0.0 0.0 0.00 0.00 0.00 48 1015.5
20260503003009 7 290 0.0 0.0 0.00 0.00 0.00 46 1015.4
20260503002009 7 290 0.0 0.0 0.00 0.00 0.00 46 1015.5
20260503001008 8 279 0.0 0.0 0.00 0.00 0.00 44 1015.5
20260503000007 8 209 0.0 0.0 0.00 0.00 0.00 44 1015.5
20260502235007 8 27 0.0 0.0 0.00 0.00 0.00 44 1015.4
20260502234006 8 315 0.0 0.0 0.00 0.00 0.00 45 1015.4
20260502233006 8 316 0.0 0.0 0.00 0.00 0.00 45 1015.5
20260502232006 8 314 0.0 0.0 0.00 0.00 0.00 44 1015.5
20260502231006 8 313 0.0 0.0 0.00 0.00 0.00 44 1015.5
20260502225005 8 316 0.0 0.0 0.00 0.00 0.00 42 1015.6
20260502224004 8 311 0.0 0.0 0.00 0.00 0.00 43 1015.6
20260502223003 8 308 0.0 0.0 0.00 0.00 0.00 44 1015.6
20260502222002 8 268 0.0 0.0 0.00 0.00 0.00 43 1015.6
20260502215001 8 317 0.0 0.0 0.00 0.00 0.00 47 1015.6
20260502214000 8 224 0.0 0.0 0.00 0.00 0.00 47 1015.7
20260502213000 8 308 0.0 0.0 0.00 0.00 0.00 47 1015.8
20260502212000 8 35 0.0 0.0 0.00 0.00 0.00 47 1015.7
20260502210959 8 297 0.0 0.0 0.00 0.00 0.00 47 1015.8
20260502205958 8 301 0.0 3.2 0.00 0.00 0.00 46 1015.9
20260502204958 8 307 0.0 0.0 0.00 0.00 0.00 48 1016.0
20260502203957 7 296 0.0 3.2 0.00 0.00 0.00 47 1016.1
20260502202956 8 308 0.0 3.2 0.00 0.00 0.00 44 1016.1
20260502201956 8 309 0.0 0.0 0.00 0.00 0.00 44 1016.1
20260502200955 8 315 0.0 0.0 0.00 0.00 0.00 44 1016.2
20260502195954 8 264 0.0 0.0 0.00 0.00 0.00 43 1016.4
20260502192952 7 297 0.0 0.0 0.00 0.00 0.00 45 1016.6
20260502190951 7 304 0.0 16.1 0.00 0.00 0.00 44 1016.9